Air Quality Table

TIMESTAMP NO2 SO2 O3 PM10 TEMP HUM AIRPRES WS WD NO
2021-08-02 17:00 10.1 ug/m3 1.23 ug/m3 103.4 ug/m3 79.08 ug/m3 34.17 C 53.36 % 1,004.98 mbar 1.46 m/s 133.1 Deg 1.16 ug/m3
2021-08-02 16:00 11.45 ug/m3 1.37 ug/m3 105.79 ug/m3 81.37 ug/m3 33.37 C 59.85 % 1,005.23 mbar 2.04 m/s 71.47 Deg 1.64 ug/m3
2021-08-02 15:00 8 ug/m3 1.41 ug/m3 116.5 ug/m3 33.77 ug/m3 34.59 C 51.23 % 1,005.42 mbar 1.98 m/s 101.35 Deg 1.11 ug/m3
2021-08-02 14:00 7.08 ug/m3 1.49 ug/m3 104.05 ug/m3 26.77 ug/m3 36.26 C 36.33 % 1,005.53 mbar 1.74 m/s 191.57 Deg 1.02 ug/m3
2021-08-02 13:00 4.82 ug/m3 1.49 ug/m3 98.92 ug/m3 43 ug/m3 36.25 C 31.17 % 1,005.63 mbar 2.57 m/s 220.1 Deg 0.91 ug/m3
2021-08-02 12:00 3.5 ug/m3 1.62 ug/m3 104.76 ug/m3 80.02 ug/m3 34.81 C 36.06 % 1,005.73 mbar 2.38 m/s 209.98 Deg 0.72 ug/m3
2021-08-02 11:00 18.71 ug/m3 1.29 ug/m3 88.05 ug/m3 87.25 ug/m3 31.67 C 65.62 % 1,005.70 mbar 3.32 m/s 165.48 Deg 3.53 ug/m3
2021-08-02 10:00 38.01 ug/m3 1.54 ug/m3 72.05 ug/m3 108.26 ug/m3 32.09 C 55.83 % 1,005.55 mbar 2.47 m/s 170.48 Deg 8.24 ug/m3
2021-08-02 09:00 49.89 ug/m3 1.62 ug/m3 55.18 ug/m3 133.09 ug/m3 31.95 C 55.91 % 1,005.37 mbar 1.99 m/s 132.3 Deg 11.58 ug/m3
2021-08-02 08:00 62.94 ug/m3 1.82 ug/m3 34.04 ug/m3 117.91 ug/m3 31.23 C 56.42 % 1,005.20 mbar 0.95 m/s 172.25 Deg 21.12 ug/m3
2021-08-02 07:00 76.14 ug/m3 2.2 ug/m3 8.71 ug/m3 74.46 ug/m3 29.74 C 52.03 % 1,004.97 mbar 1.08 m/s 300.12 Deg 47.17 ug/m3
2021-08-02 06:00 38.65 ug/m3 1.43 ug/m3 40.85 ug/m3 55.23 ug/m3 29.31 C 52.56 % 1,004.61 mbar 1.08 m/s 217.4 Deg 7.05 ug/m3
2021-08-02 05:00 19.18 ug/m3 1.61 ug/m3 61.48 ug/m3 38.98 ug/m3 29.25 C 52.16 % 1,004.40 mbar 0.67 m/s 202.22 Deg 0.85 ug/m3
2021-08-02 04:00 23.85 ug/m3 1.35 ug/m3 56.22 ug/m3 29.62 ug/m3 29.84 C 52.52 % 1,004.13 mbar 0.88 m/s 283.97 Deg 0.93 ug/m3
2021-08-02 03:00 14.57 ug/m3 1.41 ug/m3 68.58 ug/m3 29.44 ug/m3 30.35 C 52.67 % 1,004.07 mbar 1.44 m/s 318.4 Deg 0.78 ug/m3
2021-08-02 02:00 41.11 ug/m3 1.27 ug/m3 53.09 ug/m3 48.29 ug/m3 30.48 C 53.02 % 1,004.34 mbar 2.12 m/s 304.8 Deg 1.29 ug/m3
2021-08-02 01:00 37.1 ug/m3 1.37 ug/m3 52.38 ug/m3 88.61 ug/m3 29.97 C 60.06 % 1,004.41 mbar 2.92 m/s 251.97 Deg 1.71 ug/m3
2021-08-02 00:00 9.71 ug/m3 1.35 ug/m3 67.94 ug/m3 91.81 ug/m3 29.11 C 81.96 % 1,004.64 mbar 3.09 m/s 256.42 Deg 0.6 ug/m3
2021-08-01 23:00 17.22 ug/m3 1.32 ug/m3 57.3 ug/m3 75.64 ug/m3 29.81 C 69.17 % 1,004.90 mbar 2.62 m/s 179.88 Deg 1.24 ug/m3
2021-08-01 22:00 22.02 ug/m3 1.45 ug/m3 54.87 ug/m3 86.65 ug/m3 30.24 C 61.25 % 1,005.06 mbar 2.22 m/s 176.4 Deg 1.79 ug/m3
2021-08-01 21:00 27.29 ug/m3 1.43 ug/m3 51.13 ug/m3 99.31 ug/m3 30.61 C 64.61 % 1,004.88 mbar 1 m/s 115.62 Deg 1.41 ug/m3
2021-08-01 20:00 19.9 ug/m3 1.65 ug/m3 63.07 ug/m3 116.18 ug/m3 31.01 C 64.59 % 1,004.44 mbar 1.32 m/s 70.42 Deg 1.09 ug/m3
2021-08-01 19:00 8.57 ug/m3 1.68 ug/m3 83.81 ug/m3 84.9 ug/m3 32.15 C 59.56 % 1,003.97 mbar 1.16 m/s 105.07 Deg 0.62 ug/m3

It is to be noted that the data is provisional and subject to quality assurance procedures. For validated data kindly refer your request to contact.air@era.org.mt